Location: Caltech
(34.1382°N, 118.1253°W)
Time: 16:22:55
(UTC-07:00)

Lacrosse 5 - Visible Passes

Search period start: 03 August 2015 00:00
Search period end: 13 August 2015 00:00
Orbit: 714 x 723 km, 57.0° (Epoch: 02 August)

Date Brightness Start Highest point End Pass type
(mag) Time Alt. Az. Time Alt. Az. Time Alt. Az.
03 Aug 4.2 22:35:47 10° N 22:38:06 13° NNE 22:39:18 12° NE visible
04 Aug 4.2 00:16:56 10° NW 00:18:28 20° NNW 00:18:28 20° NNW visible
04 Aug 3.7 23:23:49 10° NNW 23:26:39 27° N 23:26:39 27° N visible
05 Aug 3.7 22:30:58 10° NNW 22:34:45 21° NE 22:34:54 21° NE visible
06 Aug 4.4 00:13:06 10° NW 00:14:04 16° NW 00:14:04 16° NW visible
06 Aug 4.2 21:38:37 10° N 21:40:51 13° NNE 21:43:11 10° ENE visible
06 Aug 3.5 23:19:42 10° NW 23:22:21 31° NNW 23:22:21 31° NNW visible
07 Aug 3.0 22:26:36 10° NNW 22:30:42 34° NNE 22:30:42 34° NNE visible
08 Aug 4.7 00:09:39 10° WNW 00:09:52 11° WNW 00:09:52 11° WNW visible
08 Aug 3.6 21:33:46 10° NNW 21:37:30 21° NE 21:39:05 18° ENE visible
08 Aug 3.7 23:15:52 10° NW 23:18:16 28° NW 23:18:16 28° NW visible
09 Aug 4.1 20:41:26 10° N 20:43:36 13° NNE 20:45:55 10° ENE visible
09 Aug 2.3 22:22:29 10° NNW 22:26:42 55° N 22:26:42 55° N visible
10 Aug 2.8 21:29:23 10° NNW 21:33:58 34° NE 21:35:12 30° ENE visible
10 Aug 4.0 23:12:24 10° WNW 23:14:23 21° WNW 23:14:23 21° WNW visible
11 Aug 3.6 20:36:34 10° N 20:40:15 20° NE 20:43:45 11° E visible
11 Aug 2.3 22:18:38 10° NW 22:22:57 58° W 22:22:57 58° W visible
12 Aug 1.9 21:25:16 10° NNW 21:30:17 63° NE 21:31:34 46° ESE visible
12 Aug 4.4 23:09:44 10° W 23:10:45 13° W 23:10:45 13° W visible
